Location: ??????
(38.3184°N, 23.6932°E)
Time: 02:49:57
(UTC+00:00)

Meteor 1-24 Rocket - Pass Details

Date: 16 October 2021
Orbit: 790 x 927 km, 81.3° (Epoch: 04 December)

Event Time Altitude Azimuth Distance (km) Brightness Sun altitude
Rises 16:00:52 0° 350° (N) 3,436 6.9 -3.7°
Reaches altitude 10° 16:03:15 10° 350° (N) 2,516 6.2 -4.2°
Maximum altitude 16:09:00 86° 264° (W) 896 3.9 -5.3°
Drops below altitude 10° 16:14:55 10° 174° (S) 2,584 6.3 -6.5°
Sets 16:17:24 0° 174° (S) 3,535 6.9 -7.0°
